Regional Weather Roundup
Issued by NWS

Home | Current Version | Previous Version | Text Only | Print | Product List | Glossary Off
Versions: 1 2 3 4 5 6 7 8 9 10 11 12 13 14 15 16 17 18 19 20 21 22 23 24 25 26 27 28 29 30 31 32 33 34 35 36 37 38 39 40 41 42 43 44 45 46 47 48 49 50

000
ASUS45 KBOU 261907
RWRCO

WEATHER ROUNDUP FOR COLORADO
NATIONAL WEATHER SERVICE DENVER/BOULDER CO
100 PM MDT MON JUN 26 2017

NOTE: "FAIR" INDICATES FEW OR NO CLOUDS BELOW 12000 FEET WITH NO
SIGNIFICANT WEATHER AND/OR OBSTRUCTIONS TO VISIBILITY.

COZ001>005-013-030-031-262000-
...NORTHWEST COLORADO...

CITY           SKY/WX    TMP DP  RH WIND       PRES   REMARKS
CRAIG          FAIR      86  23  10 N6        30.24F
HAYDEN         FAIR      79  27  14 N6        30.28S
MEEKER         FAIR      84  24  11 S9        30.25F
RABBIT EARS PA FAIR      63  30  29 W5        30.57F
STEAMBOAT SPGS FAIR      78  35  21 W7        30.29F
WALDEN         FAIR      75  28  17 N7        30.40F
$$

COZ006>008-011-262000-
...WEST CENTRAL VALLEYS...

CITY           SKY/WX    TMP DP  RH WIND       PRES   REMARKS
GRAND JUNCTION FAIR      92  27   9 VRB7      30.11F
MONTROSE       FAIR      89  32  13 N9        30.20F
EAGLE          SUNNY     82  27  13 MISG      30.28F
RIFLE          FAIR      87  24  10 N5        30.18F
DELTA          FAIR      92  28  10 SE5       30.16F
NUCLA          FAIR      90  25   9 N5        30.25F
$$

COZ017>023-064>068-262000-
...SOUTHWEST COLORADO...

CITY           SKY/WX    TMP DP  RH WIND       PRES   REMARKS
DURANGO        FAIR      82  41  23 CALM      30.29F
CORTEZ         FAIR      88  41  19 SW13      30.23F
PAGOSA SPRINGS FAIR      78  35  20 SW3       30.36F
TELLURIDE      FAIR      76  20  12 W10G20    30.48F
WOLF CREEK PAS PTSUNNY   55  32  41 SW9G17    30.72F
$$

COZ009-010-012-014-032>034-037-058>063-262000-
...CENTRAL COLORADO...

CITY           SKY/WX    TMP DP  RH WIND       PRES   REMARKS
ASPEN          FAIR      79  17  10 MISG      30.34F
BUENA VISTA    FAIR      77  31  18 CALM      30.35F
COPPER MTN     FAIR      64   7  10 NW12G22   30.68F
BERTHOUD PASS  FAIR      52  37  58 MISG      30.71F
COTTONWOOD PAS FAIR      73  32  21 N6        30.51F
GUNNISON       FAIR      76  34  21 CALM      30.36F
KREMMLING      NOT AVBL
LEADVILLE      FAIR      70  11  10 W15G22    30.49F
MONARCH PASS   FAIR      63  32  31 SW13G21   30.78F
SALIDA         FAIR      83  37  19 CALM      30.39F
SUNLIGHT       FAIR      64  28  25 NW5       30.62F
WILKERSON PASS FAIR      64  27  24 CALM      30.65F HAZE
$$

COZ069>075-262000-
...SAN LUIS VALLEY/SANGRE DE CRISTO MOUNTAINS...

CITY           SKY/WX    TMP DP  RH WIND       PRES   REMARKS
ALAMOSA        FAIR      74  43  32 SE8       30.36F
DEL NORTE      FAIR      74  45  35 E5        30.39F
LA VETA PASS   FAIR      68  43  40 MISG      30.67F
SAGUACHE       FAIR      77  43  29 SE8       30.38F
$$

COZ035-036-038>040-262000-
...NORTHERN COLORADO FRONT RANGE...

CITY           SKY/WX    TMP DP  RH WIND       PRES   REMARKS
DENVER INTL AP FAIR      83  39  21 VRB3      30.21F
DMNS CITY PARK   N/A     82  43  25 NE3G13    30.20F
AURORA         MOSUNNY   83  37  19 E8        30.23F
FRONT RANGE AP FAIR      84  41  21 N8        30.23F
ERIE MUNI ARPT FAIR      80  50  35 NW5       30.21F
BOULDER MUN AP FAIR      79  50  36 NE3       30.22F
CENTENNIAL     FAIR      80  33  18 CALM      30.24F
BROOMFIELD     FAIR      81  46  30 NE5       30.24F
FORT COLLINS   FAIR      83  51  33 SE5       30.21F
LONGMONT       FAIR      83  50  31 E3        30.22F
$$

COZ041-046-047-076>085-087-088-262000-
...PIKES PEAK/PALMER DIVIDE AND SOUTHERN FOOTHILLS...

CITY           SKY/WX    TMP DP  RH WIND       PRES   REMARKS
COLO. SPRINGS  FAIR      78  49  35 S7        30.28F
A. F. ACADEMY  FAIR      78  46  32 S9        30.28F
SCHRIEVER AFB  FAIR      77  42  28 SE7       30.28F
CHEYENNE MTN   PTSUNNY   73  46  38 SE7       30.28F
ELLICOTT       FAIR     N/A N/A N/A SE7       30.27F
FALCON           N/A     80  35  20 W6        30.34F
FORT CARSON    MOSUNNY   80  49  33 S9        30.25F
LIMON          FAIR      81  45  28 S10G17    30.22F
MONUMENT HILL  PTSUNNY   77  32  19 NE7       30.34F
CANON CITY     SUNNY     86  52  30 E14G20    30.20F
WALSENBURG     FAIR      81  55  41 E6        30.26F
TRINIDAD       FAIR      77  56  48 VRB5      30.26F
$$

COZ042>045-048>051-090-091-262000-
...NORTHEAST COLORADO...

CITY           SKY/WX    TMP DP  RH WIND       PRES   REMARKS
GREELEY ARPT   FAIR      82  52  35 VRB3      30.19F
AKRON          FAIR      82  50  32 VRB5      30.19F
BURLINGTON     FAIR      82  54  37 E7        30.18F
WRAY           FAIR      82  52  34 N3        30.18S
YUMA           FAIR      77  55  47 SE5       30.18F
STERLING       FAIR      82  55  39 E9        30.16F
HOLYOKE        NOT AVBL
FORT MORGAN    FAIR      83  51  33 SE3       30.19F
$$

COZ086-089-092>099-262000-
...SOUTHEAST COLORADO...

CITY           SKY/WX    TMP DP  RH WIND       PRES   REMARKS
PUEBLO         FAIR      83  56  39 CALM      30.18F
LA JUNTA       FAIR      83  58  42 MISG      30.17F
LAMAR          FAIR      85  59  41 E8        30.14F
SPRINGFIELD      N/A     83  58  42 S6        30.18F
$$



USA.gov is the U.S. government's official web portal to all federal, state and local government web resources and services.